• In Hungary
  • List of Countries
  • For 7 days
  • Water Temperature
  • Satellite Maps
  • Weather Map
  • News
  • Weather Widgets
  • user-avatar
    Login

    Hourly Weather Starohvalynskiy

    Today, 16 July, Monday

    Time Temperature Precipitation Wind Pressure Humidity
    00:00 +19°C° 0 mm 4 mps 738 mmHg 90%
    01:00 +19°C° 0 mm 4 mps 738 mmHg 90%
    02:00 +19°C° 0 mm 4 mps 738 mmHg 91%
    03:00 +18°C° 0 mm 4 mps 738 mmHg 92%
    04:00 +19°C° 0 mm 4 mps 739 mmHg 91%
    05:00 +20°C° 0 mm 4 mps 739 mmHg 88%
    06:00 +20°C° 0 mm 4 mps 739 mmHg 85%
    07:00 +21°C° 0 mm 4 mps 739 mmHg 82%
    08:00 +23°C° 0 mm 4 mps 739 mmHg 75%
    09:00 +25°C° 0 mm 5 mps 740 mmHg 69%
    10:00 +27°C° 0 mm 4 mps 740 mmHg 61%
    11:00 +27°C° 0 mm 4 mps 740 mmHg 59%
    12:00 +28°C° 0 mm 4 mps 740 mmHg 57%
    13:00 +28°C° 0 mm 4 mps 739 mmHg 55%
    14:00 +28°C° 0 mm 5 mps 739 mmHg 57%
    15:00 +28°C° 0 mm 5 mps 739 mmHg 58%
    16:00 +28°C° 0 mm 4 mps 739 mmHg 59%
    17:00 +27°C° 0 mm 4 mps 739 mmHg 64%
    18:00 +26°C° 0 mm 4 mps 739 mmHg 69%
    19:00 +25°C° 0 mm 3 mps 739 mmHg 74%
    20:00 +23°C° 0 mm 4 mps 739 mmHg 74%
    21:00 +22°C° 0 mm 4 mps 739 mmHg 75%
    22:00 +21°C° 0 mm 4 mps 739 mmHg 76%
    23:00 +21°C° 0 mm 5 mps 739 mmHg 74%

    Tomorrow, 17 July, Tuesday

    Time Temperature Precipitation Wind Pressure Humidity
    00:00 +20°C° 0 mm 5 mps 739 mmHg 73%
    01:00 +20°C° 0 mm 5 mps 739 mmHg 72%
    02:00 +20°C° 0 mm 5 mps 739 mmHg 71%
    03:00 +20°C° 0 mm 5 mps 739 mmHg 70%
    04:00 +20°C° 0 mm 5 mps 739 mmHg 69%
    05:00 +20°C° 0 mm 5 mps 739 mmHg 71%
    06:00 +20°C° 0 mm 5 mps 739 mmHg 73%
    07:00 +20°C° 0 mm 5 mps 739 mmHg 75%
    08:00 +21°C° 0 mm 5 mps 739 mmHg 73%
    09:00 +23°C° 0 mm 6 mps 739 mmHg 71%
    10:00 +24°C° 0 mm 6 mps 739 mmHg 69%
    11:00 +26°C° 0 mm 6 mps 739 mmHg 67%
    12:00 +27°C° 0 mm 6 mps 738 mmHg 64%
    13:00 +28°C° 0 mm 6 mps 738 mmHg 61%
    14:00 +28°C° 0.1 mm 5 mps 738 mmHg 63%
    15:00 +28°C° 0.1 mm 5 mps 738 mmHg 65%
    16:00 +28°C° 0.1 mm 4 mps 738 mmHg 67%
    17:00 +27°C° 0.2 mm 4 mps 738 mmHg 73%
    18:00 +26°C° 0.2 mm 4 mps 737 mmHg 79%
    19:00 +24°C° 0.2 mm 3 mps 737 mmHg 84%
    20:00 +23°C° 0 mm 4 mps 737 mmHg 81%
    21:00 +23°C° 0 mm 5 mps 737 mmHg 78%
    22:00 +23°C° 0 mm 5 mps 737 mmHg 75%
    23:00 +22°C° 0.4 mm 5 mps 737 mmHg 74%

    Day after tomorrow, 18 July, Wednesday

    Time Temperature Precipitation Wind Pressure Humidity
    00:00 +22°C° 0.4 mm 5 mps 737 mmHg 73%
    01:00 +21°C° 0.4 mm 5 mps 737 mmHg 72%
    02:00 +20°C° 0.9 mm 5 mps 737 mmHg 77%
    03:00 +19°C° 0.9 mm 5 mps 737 mmHg 83%
    04:00 +19°C° 0.9 mm 4 mps 737 mmHg 89%
    05:00 +19°C° 0.1 mm 4 mps 737 mmHg 87%
    06:00 +20°C° 0.1 mm 4 mps 737 mmHg 85%
    07:00 +20°C° 0.1 mm 4 mps 737 mmHg 83%
    08:00 +22°C° 0 mm 5 mps 737 mmHg 76%
    09:00 +25°C° 0 mm 5 mps 737 mmHg 69%
    10:00 +27°C° 0 mm 6 mps 737 mmHg 62%
    11:00 +27°C° 0.2 mm 6 mps 737 mmHg 66%
    12:00 +27°C° 0.2 mm 5 mps 738 mmHg 70%
    13:00 +26°C° 0.2 mm 5 mps 738 mmHg 73%
    14:00 +26°C° 0.5 mm 5 mps 738 mmHg 77%
    15:00 +25°C° 0.5 mm 5 mps 738 mmHg 81%
    16:00 +23°C° 0.5 mm 5 mps 738 mmHg 85%
    17:00 +22°C° 0.5 mm 5 mps 738 mmHg 85%
    18:00 +22°C° 0.5 mm 4 mps 738 mmHg 86%
    19:00 +22°C° 0.5 mm 4 mps 738 mmHg 86%
    20:00 +21°C° 0.3 mm 4 mps 738 mmHg 87%
    21:00 +20°C° 0.3 mm 3 mps 738 mmHg 88%
    22:00 +19°C° 0.3 mm 3 mps 738 mmHg 88%
    23:00 +19°C° 0 mm 3 mps 738 mmHg 89%

    19 July, Thursday

    Time Temperature Precipitation Wind Pressure Humidity
    00:00 +18°C° 0 mm 2 mps 738 mmHg 89%
    01:00 +19°C° 0 mm 1 mps 738 mmHg 90%
    02:00 +19°C° 0 mm 1 mps 738 mmHg 91%
    03:00 +19°C° 0 mm 1 mps 738 mmHg 91%
    04:00 +19°C° 0 mm 1 mps 738 mmHg 92%
    05:00 +19°C° 0 mm 2 mps 738 mmHg 90%
    06:00 +20°C° 0 mm 2 mps 738 mmHg 87%
    07:00 +21°C° 0 mm 2 mps 739 mmHg 85%
    08:00 +24°C° 0.1 mm 2 mps 739 mmHg 78%
    09:00 +26°C° 0.1 mm 2 mps 739 mmHg 71%
    10:00 +27°C° 0.1 mm 2 mps 739 mmHg 64%
    11:00 +28°C° 0.1 mm 2 mps 739 mmHg 62%
    12:00 +29°C° 0.1 mm 2 mps 739 mmHg 60%
    13:00 +30°C° 0.1 mm 2 mps 739 mmHg 58%
    14:00 +30°C° 0.2 mm 1 mps 739 mmHg 57%
    15:00 +30°C° 0.2 mm 1 mps 738 mmHg 56%
    16:00 +28°C° 0.2 mm 0 mps 738 mmHg 55%
    17:00 +29°C° 0 mm 1 mps 738 mmHg 61%
    18:00 +29°C° 0 mm 1 mps 738 mmHg 66%
    19:00 +28°C° 0 mm 1 mps 738 mmHg 72%
    20:00 +26°C° 0 mm 1 mps 739 mmHg 76%
    21:00 +24°C° 0 mm 1 mps 739 mmHg 80%
    22:00 +21°C° 0 mm 2 mps 739 mmHg 84%
    23:00 +22°C° 0.2 mm 1 mps 739 mmHg 86%

    20 July, Friday

    Time Temperature Precipitation Wind Pressure Humidity
    00:00 +21°C° 0.2 mm 1 mps 739 mmHg 87%
    01:00 +21°C° 0.2 mm 1 mps 739 mmHg 88%
    02:00 +20°C° 0 mm 1 mps 739 mmHg 89%
    03:00 +20°C° 0 mm 1 mps 739 mmHg 89%
    04:00 +20°C° 0 mm 1 mps 739 mmHg 90%
    05:00 +21°C° 0 mm 1 mps 739 mmHg 87%
    06:00 +22°C° 0 mm 1 mps 739 mmHg 84%
    07:00 +23°C° 0 mm 1 mps 739 mmHg 81%
    08:00 +25°C° 0 mm 1 mps 739 mmHg 76%
    09:00 +26°C° 0 mm 2 mps 739 mmHg 70%
    10:00 +28°C° 0 mm 2 mps 739 mmHg 65%
    11:00 +28°C° 0 mm 2 mps 739 mmHg 62%
    12:00 +29°C° 0 mm 1 mps 739 mmHg 58%
    13:00 +30°C° 0 mm 1 mps 739 mmHg 54%
    14:00 +30°C° 0 mm 1 mps 739 mmHg 55%
    15:00 +30°C° 0 mm 1 mps 739 mmHg 55%
    16:00 +30°C° 0 mm 1 mps 739 mmHg 56%
    17:00 +29°C° 0.2 mm 1 mps 739 mmHg 63%
    18:00 +28°C° 0.2 mm 2 mps 739 mmHg 70%
    19:00 +27°C° 0.2 mm 2 mps 739 mmHg 78%
    20:00 +25°C° 0 mm 2 mps 739 mmHg 81%
    21:00 +24°C° 0 mm 2 mps 739 mmHg 83%
    22:00 +21°C° 0 mm 2 mps 739 mmHg 86%
    23:00 +21°C° 0.1 mm 2 mps 739 mmHg 88%

    21 July, Saturday

    Time Temperature Precipitation Wind Pressure Humidity
    00:00 +20°C° 0.1 mm 3 mps 738 mmHg 90%
    01:00 +19°C° 0.1 mm 3 mps 738 mmHg 91%
    02:00 +19°C° 0 mm 3 mps 739 mmHg 92%
    03:00 +19°C° 0 mm 3 mps 739 mmHg 93%
    04:00 +18°C° 0 mm 2 mps 739 mmHg 93%
    05:00 +19°C° 0 mm 3 mps 739 mmHg 91%
    06:00 +20°C° 0 mm 3 mps 739 mmHg 89%
    07:00 +21°C° 0 mm 4 mps 739 mmHg 86%
    08:00 +22°C° 0 mm 4 mps 739 mmHg 79%
    09:00 +25°C° 0 mm 4 mps 739 mmHg 72%
    10:00 +26°C° 0 mm 4 mps 740 mmHg 66%
    11:00 +27°C° 0 mm 4 mps 740 mmHg 63%
    12:00 +28°C° 0 mm 4 mps 740 mmHg 60%
    13:00 +29°C° 0 mm 4 mps 740 mmHg 57%
    14:00 +28°C° 0.2 mm 4 mps 740 mmHg 59%
    15:00 +28°C° 0.2 mm 5 mps 740 mmHg 61%
    16:00 +28°C° 0.2 mm 5 mps 740 mmHg 63%
    17:00 +27°C° 0.2 mm 5 mps 740 mmHg 66%
    18:00 +26°C° 0.2 mm 4 mps 740 mmHg 70%
    19:00 +25°C° 0.2 mm 4 mps 740 mmHg 74%
    20:00 +22°C° 0 mm 5 mps 740 mmHg 73%
    21:00 +21°C° 0 mm 5 mps 740 mmHg 73%
    22:00 +20°C° 0 mm 5 mps 741 mmHg 73%
    23:00 +20°C° 0 mm 5 mps 741 mmHg 72%
    Show more